Regional Weather Roundup
Issued by NWS

Home | Current Version | Previous Version | Graphics & Text | Print | Product List | Glossary On
Versions: 1 2 3 4 5 6 7 8 9 10 11 12 13 14 15 16 17 18 19 20 21 22 23 24 25 26 27 28 29 30 31 32 33 34 35 36 37 38 39 40 41 42 43 44 45 46 47 48 49 50
000
ASUS43 KBIS 282210
RWRND

NORTH DAKOTA REGIONAL WEATHER ROUNDUP
NATIONAL WEATHER SERVICE BISMARCK ND
400 PM CST SAT FEB 28 2015

NOTE: "FAIR" INDICATES FEW OR NO CLOUDS BELOW 12,000 FEET WITH NO
SIGNIFICANT WEATHER AND/OR OBSTRUCTIONS TO VISIBILITY.


NDZ001>003-009>011-017-282300-
NORTHWEST NORTH DAKOTA

CITY           SKY/WX    TMP DP  RH WIND       PRES   REMARKS
WILLISTON      CLOUDY    15   5  64 NW9       30.15F WCI   3
MINOT          CLOUDY    12   3  67 W16       30.12R WCI  -5
MINOT AFB      DRIZZLE   10   7  85 NW18      30.11S WCI  -8
$$

NDZ018>021-031>035-040>046-282300-
SOUTHWEST NORTH DAKOTA

CITY           SKY/WX    TMP DP  RH WIND       PRES   REMARKS
BISMARCK       SUNNY     20   5  52 NW14G21   30.15R WCI   7
DICKINSON      CLOUDY    19   5  54 NW22      30.08R WCI   2
GARRISON         N/A     13   4  67 NW20G29   30.13R WCI  -5
HETTINGER ARPT PTSUNNY   20   4  50 NW20      30.11R WCI   4
$$

NDZ004>008-012>016-024-026-027-054-282300-
NORTHEAST NORTH DAKOTA

CITY           SKY/WX    TMP DP  RH WIND       PRES   REMARKS
GRAND FORKS    CLOUDY    22  14  71 SW18      30.11S WCI   7
GRND FRKS AFB  CLOUDY    23  12  63 SW12      30.10S WCI  12
DEVILS LAKE    MOSUNNY   12   3  67 W17       30.09R WCI  -5
$$

NDZ022-023-025-028>030-036>039-047>053-282300-
SOUTHEAST NORTH DAKOTA

CITY           SKY/WX    TMP DP  RH WIND       PRES   REMARKS
FARGO          CLOUDY    27  14  58 S21       30.15S WCI  13
JAMESTOWN      CLOUDY    21  11  65 NW14      30.10R WCI   8
$$



USA.gov is the U.S. government's official web portal to all federal, state and local government web resources and services.